Location: Most
(50.5133°N, 13.6207°E)
Time: 09:36:40
(UTC+02:00)

ISS - Pass Details

Date: 21 July 2018
Orbit: 402 x 408 km, 51.6° (Epoch: 17 July)

Event Time Altitude Azimuth Distance (km) Brightness Sun altitude
Rises 01:21:52 0° 275° (W) 2,326 0.1 -18.9°
Reaches altitude 10° 01:23:57 10° 278° (W) 1,467 -0.9 -18.9°
Maximum altitude 01:27:14 71° 3° (N) 435 -3.6 -18.9°
Drops below altitude 10° 01:30:31 10° 88° (E) 1,469 -0.9 -18.8°
Sets 01:32:37 0° 91° (E) 2,330 0.1 -18.8°
